Weather History for Arctic Village, AK

Change the Weather History Date:

Tuesday, February 4, 2014

  Actual Average Record
Temperature  
Mean Temperature -7 °F -  
Max Temperature 0 °F -25 °F 19 °F (2007)
Min Temperature -14 °F -40 °F -63 °F (1971)
Degree Days  
Heating Degree Days 72    
Moisture  
Dew Point -21 °F    
Average Humidity 54    
Maximum Humidity 100    
Minimum Humidity 4    
Precipitation  
Precipitation 0.00 in - - ()
Sea Level Pressure  
Sea Level Pressure 30.66 in    
Wind  
Wind Speed 0 mph (North)    
Max Wind Speed 0 mph    
Max Gust Speed -    
Visibility 10 miles    
Events      
Averages and records for this station are not official NWS values.
T = Trace of Precipitation, MM = Missing Value Source: NWS Daily Summary

Daily Weather History Graph

Daily Weather History Graph

Search for Another Location

Airport:

Trip Planner

Search our weather history database for the weather conditions in past years. The results will help you decide how hot, cold, wet, or windy it might be!

Date:

Astronomy

Feb. 04, 2014 Rise Set
Actual Time 9:46 AM AKST 4:07 PM AKST
Civil Twilight 8:37 AM AKST 5:16 PM AKST
Nautical Twilight 7:28 AM AKST 6:25 PM AKST
Astronomical Twilight 6:23 AM AKST 7:30 PM AKST
Moon 9:26 AM AKST (2/4) No Moon Set
Length of Visible Light 8h 39m
Length of Day
6h 20m
Waxing Crescent, 30% of the Moon is Illuminated
Feb 4
Waxing Crescent
Feb 6
First Quarter
Feb 14
Full
Feb 22
Last Quarter
Feb 28
New

Hourly Weather History & Observations

Time (AKST) Temp. Dew Point Humidity Pressure Visibility Wind Dir Wind Speed Gust Speed Precip Events Conditions
12:16 AM -2.2 °F -4.0 °F 92% 30.70 in 10.0 mi Calm Calm - N/A   Clear
12:36 AM -2.2 °F -11.2 °F 66% 30.70 in 10.0 mi Calm Calm - N/A   Clear
12:56 AM -2.2 °F -2.2 °F 100% 30.71 in 10.0 mi Calm Calm - N/A   Clear
1:16 AM -0.4 °F -4.0 °F 85% 30.71 in 10.0 mi Calm Calm - N/A   Clear
1:36 AM -0.4 °F -5.8 °F 78% 30.71 in 10.0 mi Calm Calm - N/A   Clear
1:56 AM -5.8 °F -18.4 °F 55% 30.71 in 10.0 mi Calm Calm - N/A   Clear
2:16 AM -7.6 °F -9.4 °F 92% 30.71 in 10.0 mi Calm Calm - N/A   Clear
2:36 AM -5.8 °F -18.4 °F 55% 30.71 in 10.0 mi Calm Calm - N/A   Clear
2:56 AM -7.6 °F -14.8 °F 71% 30.72 in 10.0 mi Calm Calm - N/A   Clear
3:16 AM -4.0 °F -4.0 °F 100% 30.71 in 10.0 mi Calm Calm - N/A   Clear
3:36 AM -5.8 °F - N/A% 30.70 in 10.0 mi Calm Calm - N/A   Clear
3:56 AM -7.6 °F - N/A% 30.70 in 10.0 mi Calm Calm - N/A   Clear
4:16 AM -9.4 °F - N/A% 30.70 in 10.0 mi Calm Calm - N/A   Clear
4:36 AM -7.6 °F - N/A% 30.70 in 10.0 mi Calm Calm - N/A   Clear
4:56 AM -7.6 °F -25.6 °F 41% 30.70 in 10.0 mi Calm Calm - N/A   Clear
5:16 AM -2.2 °F - N/A% 30.70 in 10.0 mi Calm Calm - N/A   Clear
5:36 AM -4.0 °F - N/A% 30.69 in 10.0 mi Calm Calm - N/A   Clear
5:56 AM -4.0 °F -27.4 °F 32% 30.69 in 10.0 mi Calm Calm - N/A   Clear
6:16 AM -7.6 °F -29.2 °F 34% 30.69 in 10.0 mi Calm Calm - N/A   Clear
6:36 AM -7.6 °F - N/A% 30.70 in 10.0 mi Calm Calm - N/A   Clear
6:56 AM -7.6 °F -23.8 °F 45% 30.69 in 10.0 mi Calm Calm - N/A   Clear
7:16 AM -2.2 °F -23.8 °F 35% 30.69 in 10.0 mi Calm Calm - N/A   Clear
7:36 AM -11.2 °F - N/A% 30.69 in 10.0 mi Calm Calm - N/A   Clear
7:56 AM -11.2 °F - N/A% 30.69 in 10.0 mi Calm Calm - N/A   Clear
8:16 AM -11.2 °F - N/A% 30.69 in 10.0 mi Calm Calm - N/A   Clear
8:36 AM -11.2 °F - N/A% 30.69 in 10.0 mi Calm Calm - N/A   Clear
8:56 AM -11.2 °F - N/A% 30.69 in 10.0 mi Calm Calm - N/A   Clear
9:16 AM -7.6 °F -22.0 °F 50% 30.70 in 10.0 mi Calm Calm - N/A   Clear
9:36 AM -7.6 °F -9.4 °F 92% 30.69 in 10.0 mi Calm Calm - N/A   Clear
9:56 AM -7.6 °F -29.2 °F 34% 30.69 in 6.0 mi Calm Calm - N/A   Clear
10:16 AM -7.6 °F -79.6 °F 4% 30.69 in 8.0 mi Calm Calm - N/A   Clear
10:36 AM -9.4 °F - N/A% 30.69 in 10.0 mi Calm Calm - N/A   Clear
10:56 AM -7.6 °F - N/A% 30.68 in 10.0 mi Calm Calm - N/A   Clear
11:16 AM -7.6 °F - N/A% 30.68 in 10.0 mi Calm Calm - N/A   Clear
11:36 AM -7.6 °F -29.2 °F 34% 30.68 in 10.0 mi Calm Calm - N/A   Clear
11:56 AM -5.8 °F -20.2 °F 50% 30.68 in 10.0 mi Calm Calm - N/A   Clear
12:16 PM -2.2 °F -2.2 °F 100% 30.68 in 10.0 mi Calm Calm - N/A   Clear
12:36 PM -2.2 °F -23.8 °F 35% 30.67 in 10.0 mi Calm Calm - N/A   Clear
12:56 PM -2.2 °F -25.6 °F 32% 30.67 in 10.0 mi Calm Calm - N/A   Clear
1:16 PM -2.2 °F -27.4 °F 29% 30.66 in 10.0 mi Calm Calm - N/A   Clear
1:36 PM -0.4 °F -25.6 °F 30% 30.66 in 10.0 mi Calm Calm - N/A   Clear
1:56 PM -2.2 °F -23.8 °F 35% 30.66 in 10.0 mi Calm Calm - N/A   Clear
2:16 PM -5.8 °F -20.2 °F 50% 30.66 in 10.0 mi Calm Calm - N/A   Clear
2:36 PM -5.8 °F -11.2 °F 77% 30.65 in 10.0 mi Calm Calm - N/A   Clear
2:56 PM -5.8 °F - N/A% 30.64 in 10.0 mi Calm Calm - N/A   Clear
3:16 PM -7.6 °F - N/A% 30.64 in 10.0 mi Calm Calm - N/A   Clear
3:36 PM -7.6 °F - N/A% 30.64 in 10.0 mi Calm Calm - N/A   Clear
3:56 PM -9.4 °F - N/A% 30.64 in 3.0 mi Calm Calm - N/A   Clear
4:16 PM -7.6 °F -27.4 °F 38% 30.64 in 10.0 mi Calm Calm - N/A   Clear
4:36 PM -5.8 °F -22.0 °F 46% 30.63 in 10.0 mi Calm Calm - N/A   Clear
4:56 PM -5.8 °F -23.8 °F 42% 30.62 in 10.0 mi Calm Calm - N/A   Clear
5:16 PM -9.4 °F - N/A% 30.62 in 10.0 mi Calm Calm - N/A   Clear
5:36 PM -9.4 °F - N/A% 30.62 in 10.0 mi Calm Calm - N/A   Clear
5:56 PM -9.4 °F - N/A% 30.62 in 10.0 mi Calm Calm - N/A   Clear
6:16 PM -5.8 °F - N/A% 30.62 in 10.0 mi Calm Calm - N/A   Clear
6:36 PM -11.2 °F - N/A% 30.62 in 10.0 mi Calm Calm - N/A   Clear
6:56 PM -11.2 °F -27.4 °F 45% 30.62 in 10.0 mi Calm Calm - N/A   Clear
7:16 PM -9.4 °F -23.8 °F 49% 30.62 in 10.0 mi Calm Calm - N/A   Clear
7:36 PM -11.2 °F - N/A% 30.61 in 9.0 mi Calm Calm - N/A   Clear
7:56 PM -14.8 °F - N/A% 30.60 in 9.0 mi Calm Calm - N/A   Clear
8:16 PM -9.4 °F - N/A% 30.60 in 10.0 mi Calm Calm - N/A   Clear
8:36 PM -13.0 °F - N/A% 30.60 in 9.0 mi Calm Calm - N/A   Clear
8:56 PM -11.2 °F - N/A% 30.59 in 10.0 mi Calm Calm - N/A   Clear
9:16 PM -9.4 °F -29.2 °F 37% 30.59 in 10.0 mi Calm Calm - N/A   Clear
9:36 PM -11.2 °F -29.2 °F 41% 30.58 in 10.0 mi Calm Calm - N/A   Clear
9:56 PM -14.8 °F - N/A% 30.58 in 10.0 mi Calm Calm - N/A   Clear
10:16 PM -11.2 °F -16.6 °F 77% 30.57 in 10.0 mi Calm Calm - N/A   Clear
10:36 PM -14.8 °F - N/A% 30.57 in 9.0 mi Calm Calm - N/A   Clear
10:56 PM -11.2 °F -23.8 °F 54% 30.56 in 10.0 mi Calm Calm - N/A   Clear
11:16 PM -9.4 °F - N/A% 30.56 in 10.0 mi Calm Calm - N/A   Clear
11:36 PM -11.2 °F - N/A% 30.56 in 8.0 mi Calm Calm - N/A   Clear
11:56 PM -13.0 °F - N/A% 30.55 in 10.0 mi Calm Calm - N/A   Clear